DateTimeUTC,F1_A11,F1_S11,BsB_S11,BsG_S11,BsR_S11,BbsB_S11,BbsG_S11,BbsR_S11,BaB_A11,BaG_A11,BaR_A11,Tu_S11,T_S11,Uu_S11,U_S11,P_S11,T1_A11
2021-09-12T22:00:00Z,00000200,20000000,,,,,,,0000.21,0000.03,0000.01,18.7,25.5,01.5,01.0,0658.8,31.1
2021-09-12T22:01:00Z,00000200,20000000,,,,,,,-000.46,-000.03,0000.10,18.7,25.6,01.5,01.0,0658.8,31.1
2021-09-12T22:02:00Z,00000200,20000000,,,,,,,0000.09,-000.20,-000.01,18.8,25.6,01.5,01.0,0658.8,31.1
2021-09-12T22:03:00Z,00000200,60000000,,,,,,,0000.76,0000.99,0000.50,18.8,25.6,01.5,01.0,0658.8,31.1
2021-09-12T22:04:00Z,00000200,41000000,0000.69,0000.86,0000.36,-000.12,0000.11,-000.03,0000.68,0000.50,0000.85,19.2,25.6,01.2,00.8,0659.8,31.1
2021-09-12T22:05:00Z,00000200,01000000,0000.51,0000.81,0000.46,0000.60,0000.12,-000.00,0000.45,0000.67,0000.94,19.2,25.6,01.2,00.8,0659.9,31.1
2021-09-12T22:06:00Z,00000200,01000000,0000.88,0000.73,0000.40,0000.06,0000.08,0000.14,0000.41,0000.04,-000.05,19.2,25.6,01.3,00.9,0659.8,31.1
2021-09-12T22:07:00Z,00000200,01000000,0000.99,0000.78,0000.40,0000.50,0000.54,0000.17,0000.45,0000.70,0000.57,19.1,25.6,01.2,00.8,0659.9,31.1
2021-09-12T22:08:00Z,00000200,01000000,0000.85,0000.13,0000.33,0000.13,0000.34,-000.14,0001.00,0000.74,0001.06,19.0,25.5,01.2,00.8,0659.9,31.1
2021-09-12T22:09:00Z,00000200,01000000,0000.38,0000.94,0000.18,0000.02,0000.18,-000.45,0000.67,0001.08,0000.16,19.0,25.5,01.3,00.9,0660.0,31.1
2021-09-12T22:10:00Z,00000200,01000000,0001.49,0000.49,0000.48,-000.18,0000.22,0000.09,0000.82,0000.27,0000.76,18.9,25.5,01.2,00.8,0659.9,31.1
2021-09-12T22:11:00Z,00000200,01000000,0000.75,0000.80,0000.42,-000.73,0000.35,0000.15,0000.74,0000.90,0000.62,18.9,25.5,01.3,00.9,0659.9,31.0
2021-09-12T22:12:00Z,00000200,01000000,0000.77,0000.69,0000.39,-000.44,0000.11,0000.07,0000.42,0000.87,0000.83,18.9,25.4,01.2,00.8,0659.9,31.0
2021-09-12T22:13:00Z,00000200,01000000,0000.77,0000.57,0000.55,-000.11,0000.17,-000.00,0000.67,0000.38,0000.37,19.0,25.5,01.3,00.9,0659.8,31.1
2021-09-12T22:14:00Z,00000200,01000000,0000.62,0000.64,0000.32,-000.34,0000.62,0000.29,0000.39,0000.23,0000.01,19.1,25.6,01.3,00.9,0659.8,31.1
2021-09-12T22:15:00Z,00000200,01000000,0000.59,0000.46,0000.45,0000.04,0000.21,-000.03,0000.63,0000.65,0000.95,19.1,25.6,01.3,00.9,0659.8,31.1
2021-09-12T22:16:00Z,00000200,01000000,0000.74,0000.87,0000.44,0000.09,0000.08,-000.04,0000.89,0001.00,0000.74,19.1,25.6,01.2,00.8,0659.9,31.1
2021-09-12T22:17:00Z,00000200,01000000,0001.43,0000.32,0000.50,0000.32,0000.25,-000.12,0000.67,0000.62,0000.61,19.1,25.5,01.3,00.9,0660.0,31.1
2021-09-12T22:18:00Z,00000200,01000000,0000.23,0000.97,0000.14,-000.74,0000.35,0000.10,0000.69,0000.53,0000.48,19.0,25.5,01.2,00.8,0660.0,31.1
2021-09-12T22:19:00Z,00000200,01000000,0000.84,0000.42,0000.55,0000.08,-000.00,0000.04,0000.21,0000.38,0000.22,19.0,25.5,01.2,00.8,0660.1,31.1
2021-09-12T22:20:00Z,00000200,01000000,0000.79,0000.35,0000.24,0000.08,0000.20,0000.02,0001.36,0001.18,0001.54,18.9,25.5,01.2,00.8,0660.2,31.1
2021-09-12T22:21:00Z,00000200,01000000,0000.56,0000.42,0000.34,0000.00,0000.30,0000.14,0000.61,0000.86,0000.87,18.9,25.5,01.2,00.8,0660.2,31.1
2021-09-12T22:22:00Z,00000200,01000000,0001.20,0000.81,0000.41,0000.21,0000.29,0000.16,0001.94,0001.14,0000.92,18.8,25.4,01.3,00.8,0660.1,31.1
2021-09-12T22:23:00Z,00000200,01000000,0000.36,0000.40,0000.57,-000.30,0000.29,0000.11,0000.86,0001.60,0001.13,18.8,25.4,01.5,01.0,0660.0,31.0
2021-09-12T22:24:00Z,00000200,01000000,0001.08,0000.67,0000.68,0000.06,0000.38,0000.09,0001.28,0000.85,0001.21,18.8,25.4,01.4,00.9,0660.1,31.0
2021-09-12T22:25:00Z,00000200,01000000,0000.50,0000.74,0000.33,0000.13,0000.24,-000.06,0001.16,0001.30,0001.31,18.7,25.4,01.4,00.9,0660.1,31.0
2021-09-12T22:26:00Z,00000200,01000000,0000.88,0000.93,0000.89,0000.52,0000.05,0000.23,0002.11,0001.95,0001.57,18.7,25.3,01.4,00.9,0660.1,31.0
2021-09-12T22:27:00Z,00000200,01000000,0000.77,0000.94,0000.56,-000.73,0000.13,-000.02,0000.59,0000.38,0000.62,18.8,25.3,01.4,00.9,0660.1,31.0
2021-09-12T22:28:00Z,00000200,01000000,0000.88,0000.97,0000.38,0000.92,0000.32,-000.07,0001.28,0001.63,0001.75,18.8,25.4,01.4,01.0,0660.2,31.1
2021-09-12T22:29:00Z,00000200,01000000,0000.55,0000.49,0000.38,-000.29,0000.28,-000.13,0000.73,0000.56,0000.93,18.9,25.4,01.4,00.9,0660.2,31.1
2021-09-12T22:30:00Z,00000200,01000000,0000.89,0000.73,0000.97,0000.49,0000.38,0000.34,0001.30,0001.45,0000.71,19.0,25.5,01.3,00.9,0660.1,31.1
2021-09-12T22:31:00Z,00000200,01000000,0000.72,0000.67,0000.50,0000.40,0000.36,-000.07,0001.42,0001.35,0000.95,19.0,25.4,01.4,00.9,0660.1,31.1
2021-09-12T22:32:00Z,00000200,01000000,0000.84,0000.78,0000.63,-000.03,0000.30,0000.30,0000.20,0000.56,0000.92,18.9,25.4,01.5,01.0,0660.2,31.1
2021-09-12T22:33:00Z,00000200,01000000,0000.87,0001.23,0000.60,0000.75,0000.05,0000.17,0001.27,0000.57,0000.55,18.9,25.4,01.4,01.0,0660.2,31.1
2021-09-12T22:34:00Z,00000200,01000000,0000.84,0001.01,0000.55,0000.02,0000.41,0000.30,0001.28,0001.47,0001.35,18.8,25.4,01.6,01.1,0660.1,31.1
2021-09-12T22:35:00Z,00000200,01000000,0001.47,0000.88,0000.49,0000.22,0000.38,0000.48,0001.18,0001.03,0001.10,18.8,25.4,01.6,01.1,0660.1,31.1
2021-09-12T22:36:00Z,00000200,01000000,0000.78,0001.25,0000.72,0000.44,0000.53,0000.33,0001.15,0001.39,0001.37,18.8,25.4,01.7,01.1,0660.0,31.0
2021-09-12T22:37:00Z,00000200,01000000,0001.45,0001.00,0000.80,0000.27,0000.24,0000.07,0000.96,0000.80,0000.42,18.7,25.3,01.7,01.1,0660.1,31.0
2021-09-12T22:38:00Z,00000200,01000000,0000.95,0001.04,0001.00,0000.03,0000.41,-000.17,0000.88,0000.71,0001.38,18.7,25.3,01.7,01.1,0660.1,31.1
2021-09-12T22:39:00Z,00000200,01000000,0001.78,0001.31,0000.85,0000.31,0000.66,0000.50,0001.17,0001.43,0000.76,18.6,25.3,01.5,01.0,0660.0,31.0
2021-09-12T22:40:00Z,00000200,01000000,0001.25,0000.90,0000.63,0000.13,0000.34,0000.19,0000.68,0000.22,0000.57,18.6,25.3,01.7,01.1,0660.1,31.0
2021-09-12T22:41:00Z,00000200,01000000,0001.72,0001.08,0000.83,-000.10,0000.24,-000.13,0001.64,0002.04,0001.61,18.6,25.2,01.5,01.0,0660.1,31.0
2021-09-12T22:42:00Z,00000200,01000000,0000.16,0000.85,0000.51,-000.15,0000.15,0000.30,0001.49,0001.53,0001.26,18.7,25.2,01.6,01.1,0660.2,31.0
2021-09-12T22:43:00Z,00000200,01000000,0001.78,0001.28,0000.69,0000.55,0000.28,0000.23,0000.92,0000.71,0001.39,18.8,25.3,01.6,01.1,0660.2,31.0
2021-09-12T22:44:00Z,00000200,01000000,0001.36,0000.84,0000.77,-000.05,0000.45,0000.23,0000.28,0000.76,0000.45,18.9,25.3,01.6,01.1,0660.3,31.1
2021-09-12T22:45:00Z,00000200,01000000,0000.98,0001.16,0000.77,0000.15,0000.47,-000.10,0002.30,0001.88,0001.89,18.9,25.4,01.6,01.1,0660.3,31.1
2021-09-12T22:46:00Z,00000200,01000000,0001.07,0001.04,0000.67,0000.34,0000.41,0000.20,0000.72,0000.79,0000.31,19.0,25.4,01.6,01.1,0660.4,31.1
2021-09-12T22:47:00Z,00000200,01000000,0000.90,0000.88,0000.43,0000.05,0000.33,-000.16,0000.71,0000.82,0000.86,19.0,25.4,01.5,01.0,0660.4,31.1
2021-09-12T22:48:00Z,00000200,01000000,0001.60,0000.89,0000.42,0000.11,0000.03,-000.09,0000.90,0000.79,0000.81,18.9,25.4,01.5,01.0,0660.4,31.1
2021-09-12T22:49:00Z,00000200,01000000,0001.14,0000.88,0000.48,0000.30,0000.64,0000.01,0000.83,0000.31,0000.55,18.9,25.4,01.6,01.1,0660.4,31.1
2021-09-12T22:50:00Z,00000200,01000000,0001.43,0001.00,0001.06,0000.09,0000.32,-000.23,0000.08,0000.66,0000.38,18.8,25.3,01.5,01.0,0660.4,31.0
2021-09-12T22:51:00Z,00000200,01000000,0000.61,0001.00,0000.65,0000.45,0000.16,0000.16,-000.24,-000.20,0000.33,18.8,25.3,01.4,01.0,0660.4,31.0
2021-09-12T22:52:00Z,00000200,01000000,0000.84,0001.39,0000.86,0000.84,0000.30,0000.03,0001.27,0000.86,0000.72,18.8,25.3,01.4,01.0,0660.4,31.0
2021-09-12T22:53:00Z,00000200,01000000,0001.13,0000.88,0000.97,0000.45,0000.38,0000.28,0001.96,0001.58,0001.91,18.7,25.3,01.5,01.0,0660.5,31.0
2021-09-12T22:54:00Z,00000200,01000000,0001.02,0000.82,0000.60,-000.31,0000.00,0000.11,0000.56,0001.13,0000.76,18.7,25.3,01.5,01.0,0660.5,31.0
2021-09-12T22:55:00Z,00000200,01000000,0000.47,0000.70,0000.91,-000.09,0000.60,0000.16,0001.57,0001.20,0000.96,18.7,25.3,01.6,01.1,0660.5,31.0
2021-09-12T22:56:00Z,00000200,01000000,0001.30,0001.17,0000.87,-000.23,-000.04,0000.24,0001.09,0001.35,0001.37,18.7,25.2,01.6,01.0,0660.5,31.0
2021-09-12T22:57:00Z,00000200,40000000,,,,,,,0000.96,0001.15,0000.72,18.7,25.3,01.6,01.1,0660.4,31.0
2021-09-12T22:58:00Z,00000200,61000000,,,,,,,-000.12,-000.48,-000.22,18.5,25.4,01.5,01.0,0659.5,31.1
2021-09-12T22:59:00Z,00000200,20000000,,,,,,,-000.69,-000.40,-000.31,18.5,25.5,01.5,01.0,0659.4,31.1
